Year,Month,Day,Hour,Minute,Value (Times are PST for temperature in C)
2007,08,14,00,00,12.80
2007,08,14,00,01,12.80
2007,08,14,00,02,12.80
2007,08,14,00,03,12.80
2007,08,14,00,04,12.80
2007,08,14,00,05,12.80
2007,08,14,00,06,12.80
2007,08,14,00,07,12.80
2007,08,14,00,08,12.80
2007,08,14,00,09,12.80
2007,08,14,00,10,12.80
2007,08,14,00,11,12.80
2007,08,14,00,12,12.80
2007,08,14,00,13,12.80
2007,08,14,00,14,12.80
2007,08,14,00,15,12.80
2007,08,14,00,16,12.70
2007,08,14,00,17,12.70
2007,08,14,00,18,12.70
2007,08,14,00,19,12.70
2007,08,14,00,20,12.70
2007,08,14,00,21,12.70
2007,08,14,00,22,12.70
2007,08,14,00,23,12.70
2007,08,14,00,24,12.70
2007,08,14,00,25,12.60
2007,08,14,00,26,12.60
2007,08,14,00,27,12.60
2007,08,14,00,28,12.60
2007,08,14,00,29,12.60
2007,08,14,00,30,12.60
2007,08,14,00,31,12.60
2007,08,14,00,32,12.60
2007,08,14,00,33,12.50
2007,08,14,00,34,12.50
2007,08,14,00,35,12.50
2007,08,14,00,36,12.50
2007,08,14,00,37,12.50
2007,08,14,00,38,12.50
2007,08,14,00,39,12.50
2007,08,14,00,40,12.50
2007,08,14,00,41,12.50
2007,08,14,00,42,12.50
2007,08,14,00,43,12.50
2007,08,14,00,44,12.50
2007,08,14,00,45,12.50
2007,08,14,00,46,12.50
2007,08,14,00,47,12.50
2007,08,14,00,48,12.50
2007,08,14,00,49,12.50
2007,08,14,00,50,12.60
2007,08,14,00,51,12.60
2007,08,14,00,52,12.70
2007,08,14,00,53,12.80
2007,08,14,00,54,12.80
2007,08,14,00,55,12.90
2007,08,14,00,56,12.90
2007,08,14,00,57,13.00
2007,08,14,00,58,13.00
2007,08,14,00,59,13.00
2007,08,14,01,00,13.10
2007,08,14,01,01,13.10
2007,08,14,01,02,13.20
2007,08,14,01,03,13.20
2007,08,14,01,04,13.30
2007,08,14,01,05,13.30
2007,08,14,01,06,13.30
2007,08,14,01,07,13.30
2007,08,14,01,08,13.30
2007,08,14,01,09,13.30
2007,08,14,01,10,13.30
2007,08,14,01,11,13.30
2007,08,14,01,12,13.30
2007,08,14,01,13,13.30
2007,08,14,01,14,13.30
2007,08,14,01,15,13.20
2007,08,14,01,16,13.20
2007,08,14,01,17,13.10
2007,08,14,01,18,13.10
2007,08,14,01,19,13.00
2007,08,14,01,20,13.00
2007,08,14,01,21,12.90
2007,08,14,01,22,12.90
2007,08,14,01,23,12.80
2007,08,14,01,24,12.80
2007,08,14,01,25,12.80
2007,08,14,01,26,12.80
2007,08,14,01,27,12.70
2007,08,14,01,28,12.70
2007,08,14,01,29,12.70
2007,08,14,01,30,12.60
2007,08,14,01,31,12.60
2007,08,14,01,32,12.60
2007,08,14,01,33,12.60
2007,08,14,01,34,12.50
2007,08,14,01,35,12.50
2007,08,14,01,36,12.50
2007,08,14,01,37,12.40
2007,08,14,01,38,12.40
2007,08,14,01,39,12.40
2007,08,14,01,40,12.30
2007,08,14,01,41,12.30
2007,08,14,01,42,12.30
2007,08,14,01,43,12.30
2007,08,14,01,44,12.30
2007,08,14,01,45,12.30
2007,08,14,01,46,12.30
2007,08,14,01,47,12.30
2007,08,14,01,48,12.30
2007,08,14,01,49,12.20
2007,08,14,01,50,12.20
2007,08,14,01,51,12.20
2007,08,14,01,52,12.20
2007,08,14,01,53,12.20
2007,08,14,01,54,12.20
2007,08,14,01,55,12.10
2007,08,14,01,56,12.10
2007,08,14,01,57,12.10
2007,08,14,01,58,12.10
2007,08,14,01,59,12.10
2007,08,14,02,00,12.00
2007,08,14,02,01,12.00
2007,08,14,02,02,12.00
2007,08,14,02,03,12.00
2007,08,14,02,04,12.00
2007,08,14,02,05,12.00
2007,08,14,02,06,12.00
2007,08,14,02,07,11.90
2007,08,14,02,08,11.90
2007,08,14,02,09,11.90
2007,08,14,02,10,11.90
2007,08,14,02,11,11.90
2007,08,14,02,12,11.80
2007,08,14,02,13,11.80
2007,08,14,02,14,11.80
2007,08,14,02,15,11.80
2007,08,14,02,16,11.80
2007,08,14,02,17,11.80
2007,08,14,02,18,11.80
2007,08,14,02,19,11.80
2007,08,14,02,20,11.80
2007,08,14,02,21,11.80
2007,08,14,02,22,11.80
2007,08,14,02,23,11.80
2007,08,14,02,24,11.70
2007,08,14,02,25,11.70
2007,08,14,02,26,11.70
2007,08,14,02,27,11.70
2007,08,14,02,28,11.70
2007,08,14,02,29,11.70
2007,08,14,02,30,11.70
2007,08,14,02,31,11.60
2007,08,14,02,32,11.60
2007,08,14,02,33,11.60
2007,08,14,02,34,11.60
2007,08,14,02,35,11.60
2007,08,14,02,36,11.60
2007,08,14,02,37,11.60
2007,08,14,02,38,11.60
2007,08,14,02,39,11.60
2007,08,14,02,40,11.60
2007,08,14,02,41,11.50
2007,08,14,02,42,11.40
2007,08,14,02,43,11.40
2007,08,14,02,44,11.40
2007,08,14,02,45,11.40
2007,08,14,02,46,11.40
2007,08,14,02,47,11.40
2007,08,14,02,48,11.40
2007,08,14,02,49,11.40
2007,08,14,02,50,11.30
2007,08,14,02,51,11.30
2007,08,14,02,52,11.30
2007,08,14,02,53,11.30
2007,08,14,02,54,11.30
2007,08,14,02,55,11.30
2007,08,14,02,56,11.30
2007,08,14,02,57,11.30
2007,08,14,02,58,11.30
2007,08,14,02,59,11.30
2007,08,14,03,00,11.30
2007,08,14,03,01,11.30
2007,08,14,03,02,11.30
2007,08,14,03,03,11.30
2007,08,14,03,04,11.30
2007,08,14,03,05,11.30
2007,08,14,03,06,11.30
2007,08,14,03,07,11.20
2007,08,14,03,08,11.20
2007,08,14,03,09,11.20
2007,08,14,03,10,11.20
2007,08,14,03,11,11.20
2007,08,14,03,12,11.20
2007,08,14,03,13,11.20
2007,08,14,03,14,11.20
2007,08,14,03,15,11.20
2007,08,14,03,16,11.20
2007,08,14,03,17,11.10
2007,08,14,03,18,11.10
2007,08,14,03,19,11.10
2007,08,14,03,20,11.10
2007,08,14,03,21,11.10
2007,08,14,03,22,11.10
2007,08,14,03,23,11.10
2007,08,14,03,24,11.10
2007,08,14,03,25,11.10
2007,08,14,03,26,11.10
2007,08,14,03,27,11.10
2007,08,14,03,28,11.10
2007,08,14,03,29,11.20
2007,08,14,03,30,11.20
2007,08,14,03,31,11.20
2007,08,14,03,32,11.20
2007,08,14,03,33,11.20
2007,08,14,03,34,11.20
2007,08,14,03,35,11.20
2007,08,14,03,36,11.20
2007,08,14,03,37,11.10
2007,08,14,03,38,11.10
2007,08,14,03,39,11.10
2007,08,14,03,40,11.10
2007,08,14,03,41,11.10
2007,08,14,03,42,11.10
2007,08,14,03,43,11.10
2007,08,14,03,44,11.10
2007,08,14,03,45,11.10
2007,08,14,03,46,11.10
2007,08,14,03,47,11.10
2007,08,14,03,48,11.10
2007,08,14,03,49,11.10
2007,08,14,03,50,10.90
2007,08,14,03,51,10.90
2007,08,14,03,52,10.90
2007,08,14,03,53,10.90
2007,08,14,03,54,10.90
2007,08,14,03,55,10.90
2007,08,14,03,56,10.90
2007,08,14,03,57,10.90
2007,08,14,03,58,10.90
2007,08,14,03,59,10.90
2007,08,14,04,00,10.90
2007,08,14,04,01,10.90
2007,08,14,04,02,10.90
2007,08,14,04,03,10.90
2007,08,14,04,04,10.80
2007,08,14,04,05,10.80
2007,08,14,04,06,10.80
2007,08,14,04,07,10.70
2007,08,14,04,08,10.70
2007,08,14,04,09,10.70
2007,08,14,04,10,10.70
2007,08,14,04,11,10.60
2007,08,14,04,12,10.60
2007,08,14,04,13,10.60
2007,08,14,04,14,10.60
2007,08,14,04,15,10.60
2007,08,14,04,16,10.60
2007,08,14,04,17,10.60
2007,08,14,04,18,10.50
2007,08,14,04,19,10.40
2007,08,14,04,20,10.40
2007,08,14,04,21,10.40
2007,08,14,04,22,10.40
2007,08,14,04,23,10.40
2007,08,14,04,24,10.40
2007,08,14,04,25,10.40
2007,08,14,04,26,10.40
2007,08,14,04,27,10.40
2007,08,14,04,28,10.40
2007,08,14,04,29,10.40
2007,08,14,04,30,10.30
2007,08,14,04,31,10.30
2007,08,14,04,32,10.30
2007,08,14,04,33,10.30
2007,08,14,04,34,10.30
2007,08,14,04,35,10.20
2007,08,14,04,36,10.20
2007,08,14,04,37,10.20
2007,08,14,04,38,10.20
2007,08,14,04,39,10.20
2007,08,14,04,40,10.20
2007,08,14,04,41,10.20
2007,08,14,04,42,10.10
2007,08,14,04,43,10.10
2007,08,14,04,44,10.10
2007,08,14,04,45,10.10
2007,08,14,04,46,10.10
2007,08,14,04,47,10.10
2007,08,14,04,48,10.10
2007,08,14,04,49,10.10
2007,08,14,04,50,10.10
2007,08,14,04,51,10.00
2007,08,14,04,52,9.90
2007,08,14,04,53,9.90
2007,08,14,04,54,9.90
2007,08,14,04,55,9.90
2007,08,14,04,56,9.90
2007,08,14,04,57,9.90
2007,08,14,04,58,9.90
2007,08,14,04,59,9.90
2007,08,14,05,00,9.90
2007,08,14,05,01,9.90
2007,08,14,05,02,9.90
2007,08,14,05,03,9.90
2007,08,14,05,04,9.90
2007,08,14,05,05,9.90
2007,08,14,05,06,9.90
2007,08,14,05,07,9.90
2007,08,14,05,08,9.90
2007,08,14,05,09,9.90
2007,08,14,05,10,9.90
2007,08,14,05,11,9.90
2007,08,14,05,12,9.90
2007,08,14,05,13,9.90
2007,08,14,05,14,9.90
2007,08,14,05,15,9.90
2007,08,14,05,16,9.90
2007,08,14,05,17,9.90
2007,08,14,05,18,9.90
2007,08,14,05,19,9.90
2007,08,14,05,20,9.90
2007,08,14,05,21,9.90
2007,08,14,05,22,9.90
2007,08,14,05,23,9.90
2007,08,14,05,24,9.90
2007,08,14,05,25,9.90
2007,08,14,05,26,9.90
2007,08,14,05,27,9.90
2007,08,14,05,28,9.90
2007,08,14,05,29,9.90
2007,08,14,05,30,9.90
2007,08,14,05,31,9.90
2007,08,14,05,32,9.90
2007,08,14,05,33,9.90
2007,08,14,05,34,9.90
2007,08,14,05,35,9.90
2007,08,14,05,36,9.90
2007,08,14,05,37,9.90
2007,08,14,05,38,9.90
2007,08,14,05,39,9.90
2007,08,14,05,40,9.80
2007,08,14,05,41,9.80
2007,08,14,05,42,9.80
2007,08,14,05,43,9.90
2007,08,14,05,44,9.90
2007,08,14,05,45,9.90
2007,08,14,05,46,9.90
2007,08,14,05,47,9.90
2007,08,14,05,48,9.90
2007,08,14,05,49,9.80
2007,08,14,05,50,9.80
2007,08,14,05,51,9.80
2007,08,14,05,52,9.80
2007,08,14,05,53,9.80
2007,08,14,05,54,9.80
2007,08,14,05,55,9.80
2007,08,14,05,56,9.80
2007,08,14,05,57,9.80
2007,08,14,05,58,9.80
2007,08,14,05,59,9.80
2007,08,14,06,00,9.80
2007,08,14,06,01,9.80
2007,08,14,06,02,9.80
2007,08,14,06,03,9.80
2007,08,14,06,04,9.80
2007,08,14,06,05,9.80
2007,08,14,06,06,9.80
2007,08,14,06,07,9.80
2007,08,14,06,08,9.80
2007,08,14,06,09,9.80
2007,08,14,06,10,9.80
2007,08,14,06,11,9.80
2007,08,14,06,12,9.80
2007,08,14,06,13,9.80
2007,08,14,06,14,9.80
2007,08,14,06,15,9.80
2007,08,14,06,16,9.80
2007,08,14,06,17,9.80
2007,08,14,06,18,9.80
2007,08,14,06,19,9.80
2007,08,14,06,20,9.80
2007,08,14,06,21,9.80
2007,08,14,06,22,9.80
2007,08,14,06,23,9.80
2007,08,14,06,24,9.80
2007,08,14,06,25,9.80
2007,08,14,06,26,9.80
2007,08,14,06,27,9.80
2007,08,14,06,28,9.80
2007,08,14,06,29,9.80
2007,08,14,06,30,9.80
2007,08,14,06,31,9.80
2007,08,14,06,32,9.80
2007,08,14,06,33,9.90
2007,08,14,06,34,9.90
2007,08,14,06,35,9.90
2007,08,14,06,36,9.90
2007,08,14,06,37,9.90
2007,08,14,06,38,9.90
2007,08,14,06,39,9.90
2007,08,14,06,40,9.90
2007,08,14,06,41,9.90
2007,08,14,06,42,9.90
2007,08,14,06,43,9.90
2007,08,14,06,44,9.90
2007,08,14,06,45,9.90
2007,08,14,06,46,9.90
2007,08,14,06,47,9.90
2007,08,14,06,48,9.90
2007,08,14,06,49,9.90
2007,08,14,06,50,9.90
2007,08,14,06,51,9.90
2007,08,14,06,52,9.90
2007,08,14,06,53,9.90
2007,08,14,06,54,9.90
2007,08,14,06,55,9.90
2007,08,14,06,56,9.90
2007,08,14,06,57,9.90
2007,08,14,06,58,9.90
2007,08,14,06,59,9.90
2007,08,14,07,00,9.90
2007,08,14,07,01,9.90
2007,08,14,07,02,9.90
2007,08,14,07,03,9.90
2007,08,14,07,04,9.90
2007,08,14,07,05,9.90
2007,08,14,07,06,9.90
2007,08,14,07,07,9.90
2007,08,14,07,08,9.90
2007,08,14,07,09,10.00
2007,08,14,07,10,10.10
2007,08,14,07,11,10.10
2007,08,14,07,12,10.10
2007,08,14,07,13,10.20
2007,08,14,07,14,10.20
2007,08,14,07,15,10.30
2007,08,14,07,16,10.40
2007,08,14,07,17,10.50
2007,08,14,07,18,10.60
2007,08,14,07,19,10.70
2007,08,14,07,20,10.90
2007,08,14,07,21,11.00
2007,08,14,07,22,11.10
2007,08,14,07,23,11.30
2007,08,14,07,24,11.40
2007,08,14,07,25,11.60
2007,08,14,07,26,11.80
2007,08,14,07,27,11.90
2007,08,14,07,28,12.00
2007,08,14,07,29,12.20
2007,08,14,07,30,12.30
2007,08,14,07,31,12.40
2007,08,14,07,32,12.50
2007,08,14,07,33,12.60
2007,08,14,07,34,12.70
2007,08,14,07,35,12.80
2007,08,14,07,36,13.00
2007,08,14,07,37,13.10
2007,08,14,07,38,13.30
2007,08,14,07,39,13.40
2007,08,14,07,40,13.50
2007,08,14,07,41,13.50
2007,08,14,07,42,13.60
2007,08,14,07,43,13.70
2007,08,14,07,44,13.70
2007,08,14,07,45,13.80
2007,08,14,07,46,13.90
2007,08,14,07,47,13.90
2007,08,14,07,48,14.00
2007,08,14,07,49,14.00
2007,08,14,07,50,14.10
2007,08,14,07,51,14.20
2007,08,14,07,52,14.20
2007,08,14,07,53,14.20
2007,08,14,07,54,14.30
2007,08,14,07,55,14.40
2007,08,14,07,56,14.40
2007,08,14,07,57,14.50
2007,08,14,07,58,14.50
2007,08,14,07,59,14.50
2007,08,14,08,00,14.60
2007,08,14,08,01,14.60
2007,08,14,08,02,14.60
2007,08,14,08,03,14.70
2007,08,14,08,04,14.70
2007,08,14,08,05,14.80
2007,08,14,08,06,14.80
2007,08,14,08,07,14.80
2007,08,14,08,08,14.90
2007,08,14,08,09,14.90
2007,08,14,08,10,15.00
2007,08,14,08,11,15.00
2007,08,14,08,12,15.10
2007,08,14,08,13,15.10
2007,08,14,08,14,15.20
2007,08,14,08,15,15.30
2007,08,14,08,16,15.30
2007,08,14,08,17,15.40
2007,08,14,08,18,15.50
2007,08,14,08,19,15.60
2007,08,14,08,20,15.80
2007,08,14,08,21,15.90
2007,08,14,08,22,16.10
2007,08,14,08,23,16.20
2007,08,14,08,24,16.30
2007,08,14,08,25,16.40
2007,08,14,08,26,16.50
2007,08,14,08,27,16.60
2007,08,14,08,28,16.80
2007,08,14,08,29,16.90
2007,08,14,08,30,17.00
2007,08,14,08,31,17.10
2007,08,14,08,32,17.20
2007,08,14,08,33,17.20
2007,08,14,08,34,17.30
2007,08,14,08,35,17.30
2007,08,14,08,36,17.40
2007,08,14,08,37,17.50
2007,08,14,08,38,17.70
2007,08,14,08,39,17.80
2007,08,14,08,40,17.90
2007,08,14,08,41,18.00
2007,08,14,08,42,18.10
2007,08,14,08,43,18.20
2007,08,14,08,44,18.30
2007,08,14,08,45,18.40
2007,08,14,08,46,18.40
2007,08,14,08,47,18.50
2007,08,14,08,48,18.50
2007,08,14,08,49,18.60
2007,08,14,08,50,18.60
2007,08,14,08,51,18.70
2007,08,14,08,52,18.80
2007,08,14,08,53,18.80
2007,08,14,08,54,18.80
2007,08,14,08,55,18.80
2007,08,14,08,56,18.90
2007,08,14,08,57,18.90
2007,08,14,08,58,18.90
2007,08,14,08,59,19.00
2007,08,14,09,00,19.10
2007,08,14,09,01,19.10
2007,08,14,09,02,19.10
2007,08,14,09,03,19.10
2007,08,14,09,04,19.20
2007,08,14,09,05,19.20
2007,08,14,09,06,19.30
2007,08,14,09,07,19.40
2007,08,14,09,08,19.40
2007,08,14,09,09,19.50
2007,08,14,09,10,19.50
2007,08,14,09,11,19.50
2007,08,14,09,12,19.50
2007,08,14,09,13,19.50
2007,08,14,09,14,19.50
2007,08,14,09,15,19.50
2007,08,14,09,16,19.60
2007,08,14,09,17,19.60
2007,08,14,09,18,19.70
2007,08,14,09,19,19.80
2007,08,14,09,20,19.80
2007,08,14,09,21,19.90
2007,08,14,09,22,19.90
2007,08,14,09,23,19.90
2007,08,14,09,24,19.90
2007,08,14,09,25,19.90
2007,08,14,09,26,19.90
2007,08,14,09,27,19.90
2007,08,14,09,28,19.90
2007,08,14,09,29,19.90
2007,08,14,09,30,19.90
2007,08,14,09,31,19.90
2007,08,14,09,32,19.90
2007,08,14,09,33,19.90
2007,08,14,09,34,20.00
2007,08,14,09,35,20.10
2007,08,14,09,36,20.10
2007,08,14,09,37,20.20
2007,08,14,09,38,20.20
2007,08,14,09,39,20.30
2007,08,14,09,40,20.30
2007,08,14,09,41,20.30
2007,08,14,09,42,20.30
2007,08,14,09,43,20.20
2007,08,14,09,44,20.20
2007,08,14,09,45,20.20
2007,08,14,09,46,20.20
2007,08,14,09,47,20.20
2007,08,14,09,48,20.10
2007,08,14,09,49,20.00
2007,08,14,09,50,19.90
2007,08,14,09,51,19.90
2007,08,14,09,52,19.90
2007,08,14,09,53,19.80
2007,08,14,09,54,19.70
2007,08,14,09,55,19.70
2007,08,14,09,56,19.60
2007,08,14,09,57,19.60
2007,08,14,09,58,19.50
2007,08,14,09,59,19.50
2007,08,14,10,00,19.50
2007,08,14,10,01,19.50
2007,08,14,10,02,19.50
2007,08,14,10,03,19.50
2007,08,14,10,04,19.50
2007,08,14,10,05,19.60
2007,08,14,10,06,19.70
2007,08,14,10,07,19.80
2007,08,14,10,08,19.80
2007,08,14,10,09,19.90
2007,08,14,10,10,19.90
2007,08,14,10,11,19.90
2007,08,14,10,12,19.90
2007,08,14,10,13,19.90
2007,08,14,10,14,20.00
2007,08,14,10,15,20.10
2007,08,14,10,16,20.10
2007,08,14,10,17,20.10
2007,08,14,10,18,20.20
2007,08,14,10,19,20.20
2007,08,14,10,20,20.20
2007,08,14,10,21,20.20
2007,08,14,10,22,20.20
2007,08,14,10,23,20.20
2007,08,14,10,24,20.20
2007,08,14,10,25,20.20
2007,08,14,10,26,20.20
2007,08,14,10,27,20.20
2007,08,14,10,28,20.20
2007,08,14,10,29,20.20
2007,08,14,10,30,20.30
2007,08,14,10,31,20.30
2007,08,14,10,32,20.30
2007,08,14,10,33,20.40
2007,08,14,10,34,20.40
2007,08,14,10,35,20.40
2007,08,14,10,36,20.50
2007,08,14,10,37,20.50
2007,08,14,10,38,20.50
2007,08,14,10,39,20.60
2007,08,14,10,40,20.70
2007,08,14,10,41,20.70
2007,08,14,10,42,20.70
2007,08,14,10,43,20.70
2007,08,14,10,44,20.80
2007,08,14,10,45,20.80
2007,08,14,10,46,20.80
2007,08,14,10,47,20.80
2007,08,14,10,48,20.90
2007,08,14,10,49,20.90
2007,08,14,10,50,21.00
2007,08,14,10,51,21.00
2007,08,14,10,52,21.10
2007,08,14,10,53,21.00
2007,08,14,10,54,21.00
2007,08,14,10,55,21.00
2007,08,14,10,56,21.00
2007,08,14,10,57,21.00
2007,08,14,10,58,21.10
2007,08,14,10,59,21.20
2007,08,14,11,00,21.20
2007,08,14,11,01,21.20
2007,08,14,11,02,21.20
2007,08,14,11,03,21.30
2007,08,14,11,04,21.30
2007,08,14,11,05,21.40
2007,08,14,11,06,21.40
2007,08,14,11,07,21.30
2007,08,14,11,08,21.30
2007,08,14,11,09,21.40
2007,08,14,11,10,21.60
2007,08,14,11,11,21.60
2007,08,14,11,12,21.60
2007,08,14,11,13,21.60
2007,08,14,11,14,21.70
2007,08,14,11,15,21.60
2007,08,14,11,16,21.60
2007,08,14,11,17,21.70
2007,08,14,11,18,21.70
2007,08,14,11,19,21.80
2007,08,14,11,20,21.80
2007,08,14,11,21,21.80
2007,08,14,11,22,21.80
2007,08,14,11,23,21.80
2007,08,14,11,24,21.80
2007,08,14,11,25,21.80
2007,08,14,11,26,21.80
2007,08,14,11,27,21.90
2007,08,14,11,28,21.90
2007,08,14,11,29,22.00
2007,08,14,11,30,22.00
2007,08,14,11,31,22.00
2007,08,14,11,32,22.00
2007,08,14,11,33,22.00
2007,08,14,11,34,22.00
2007,08,14,11,35,22.00
2007,08,14,11,36,22.00
2007,08,14,11,37,22.10
2007,08,14,11,38,22.00
2007,08,14,11,39,22.10
2007,08,14,11,40,22.10
2007,08,14,11,41,22.20
2007,08,14,11,42,22.10
2007,08,14,11,43,22.20
2007,08,14,11,44,22.20
2007,08,14,11,45,22.30
2007,08,14,11,46,22.40
2007,08,14,11,47,22.50
2007,08,14,11,48,22.50
2007,08,14,11,49,22.50
2007,08,14,11,50,22.50
2007,08,14,11,51,22.50
2007,08,14,11,52,22.50
2007,08,14,11,53,22.60
2007,08,14,11,54,22.70
2007,08,14,11,55,22.80
2007,08,14,11,56,22.90
2007,08,14,11,57,22.90
2007,08,14,11,58,22.90
2007,08,14,11,59,22.90
2007,08,14,12,00,22.90
2007,08,14,12,01,22.90
2007,08,14,12,02,23.10
2007,08,14,12,03,23.10
2007,08,14,12,04,23.10
2007,08,14,12,05,23.10
2007,08,14,12,06,23.30
2007,08,14,12,07,23.40
2007,08,14,12,08,23.50
2007,08,14,12,09,23.60
2007,08,14,12,10,23.60
2007,08,14,12,11,23.70
2007,08,14,12,12,23.70
2007,08,14,12,13,23.70
2007,08,14,12,14,23.80
2007,08,14,12,15,23.90
2007,08,14,12,16,24.10
2007,08,14,12,17,24.10
2007,08,14,12,18,24.30
2007,08,14,12,19,24.30
2007,08,14,12,20,24.40
2007,08,14,12,21,24.40
2007,08,14,12,22,24.40
2007,08,14,12,23,24.40
2007,08,14,12,24,24.50
2007,08,14,12,25,24.60
2007,08,14,12,26,24.60
2007,08,14,12,27,24.70
2007,08,14,12,28,24.60
2007,08,14,12,29,24.60
2007,08,14,12,30,24.70
2007,08,14,12,31,24.70
2007,08,14,12,32,24.80
2007,08,14,12,33,24.80
2007,08,14,12,34,24.70
2007,08,14,12,35,24.60
2007,08,14,12,36,24.60
2007,08,14,12,37,24.50
2007,08,14,12,38,24.40
2007,08,14,12,39,24.40
2007,08,14,12,40,24.30
2007,08,14,12,41,24.20
2007,08,14,12,42,24.10
2007,08,14,12,43,24.10
2007,08,14,12,44,24.10
2007,08,14,12,45,24.10
2007,08,14,12,46,24.10
2007,08,14,12,47,24.10
2007,08,14,12,48,24.10
2007,08,14,12,49,24.10
2007,08,14,12,50,24.10
2007,08,14,12,51,24.10
2007,08,14,12,52,24.10
2007,08,14,12,53,24.10
2007,08,14,12,54,24.10
2007,08,14,12,55,24.10
2007,08,14,12,56,24.10
2007,08,14,12,57,24.10
2007,08,14,12,58,24.10
2007,08,14,12,59,24.20
2007,08,14,13,00,24.20
2007,08,14,13,01,24.20
2007,08,14,13,02,24.20
2007,08,14,13,03,24.20
2007,08,14,13,04,24.20
2007,08,14,13,05,24.30
2007,08,14,13,06,24.30
2007,08,14,13,07,24.40
2007,08,14,13,08,24.40
2007,08,14,13,09,24.40
2007,08,14,13,10,24.40
2007,08,14,13,11,24.40
2007,08,14,13,12,24.40
2007,08,14,13,13,24.50
2007,08,14,13,14,24.50
2007,08,14,13,15,24.50
2007,08,14,13,16,24.50
2007,08,14,13,17,24.60
2007,08,14,13,18,24.70
2007,08,14,13,19,24.70
2007,08,14,13,20,24.80
2007,08,14,13,21,24.90
2007,08,14,13,22,24.90
2007,08,14,13,23,24.90
2007,08,14,13,24,24.90
2007,08,14,13,25,24.90
2007,08,14,13,26,25.00
2007,08,14,13,27,25.00
2007,08,14,13,28,25.00
2007,08,14,13,29,25.00
2007,08,14,13,30,25.00
2007,08,14,13,31,25.00
2007,08,14,13,32,25.10
2007,08,14,13,33,25.10
2007,08,14,13,34,25.00
2007,08,14,13,35,25.00
2007,08,14,13,36,25.00
2007,08,14,13,37,25.10
2007,08,14,13,38,25.20
2007,08,14,13,39,25.20
2007,08,14,13,40,25.20
2007,08,14,13,41,25.20
2007,08,14,13,42,25.20
2007,08,14,13,43,25.20
2007,08,14,13,44,25.20
2007,08,14,13,45,25.10
2007,08,14,13,46,25.00
2007,08,14,13,47,25.00
2007,08,14,13,48,25.00
2007,08,14,13,49,25.00
2007,08,14,13,50,25.00
2007,08,14,13,51,25.10
2007,08,14,13,52,25.20
2007,08,14,13,53,25.30
2007,08,14,13,54,25.30
2007,08,14,13,55,25.30
2007,08,14,13,56,25.30
2007,08,14,13,57,25.30
2007,08,14,13,58,25.30
2007,08,14,13,59,25.30
2007,08,14,14,00,25.30
2007,08,14,14,01,25.30
2007,08,14,14,02,25.30
2007,08,14,14,03,25.30
2007,08,14,14,04,25.40
2007,08,14,14,05,25.40
2007,08,14,14,06,25.50
2007,08,14,14,07,25.50
2007,08,14,14,08,25.50
2007,08,14,14,09,25.50
2007,08,14,14,10,25.40
2007,08,14,14,11,25.50
2007,08,14,14,12,25.50
2007,08,14,14,13,25.30
2007,08,14,14,14,25.20
2007,08,14,14,15,25.20
2007,08,14,14,16,25.10
2007,08,14,14,17,25.20
2007,08,14,14,18,25.20
2007,08,14,14,19,25.20
2007,08,14,14,20,25.30
2007,08,14,14,21,25.40
2007,08,14,14,22,25.40
2007,08,14,14,23,25.40
2007,08,14,14,24,25.40
2007,08,14,14,25,25.40
2007,08,14,14,26,25.50
2007,08,14,14,27,25.50
2007,08,14,14,28,25.50
2007,08,14,14,29,25.50
2007,08,14,14,30,25.60
2007,08,14,14,31,25.60
2007,08,14,14,32,25.60
2007,08,14,14,33,25.50
2007,08,14,14,34,25.40
2007,08,14,14,35,25.30
2007,08,14,14,36,25.30
2007,08,14,14,37,25.20
2007,08,14,14,38,25.20
2007,08,14,14,39,25.20
2007,08,14,14,40,25.10
2007,08,14,14,41,25.00
2007,08,14,14,42,24.90
2007,08,14,14,43,24.90
2007,08,14,14,44,24.90
2007,08,14,14,45,24.90
2007,08,14,14,46,25.00
2007,08,14,14,47,25.00
2007,08,14,14,48,25.00
2007,08,14,14,49,25.10
2007,08,14,14,50,25.10
2007,08,14,14,51,25.20
2007,08,14,14,52,25.30
2007,08,14,14,53,25.30
2007,08,14,14,54,25.30
2007,08,14,14,55,25.30
2007,08,14,14,56,25.30
2007,08,14,14,57,25.20
2007,08,14,14,58,25.20
2007,08,14,14,59,25.20
2007,08,14,15,00,25.30
2007,08,14,15,01,25.30
2007,08,14,15,02,25.30
2007,08,14,15,03,25.30
2007,08,14,15,04,25.30
2007,08,14,15,05,25.20
2007,08,14,15,06,25.20
2007,08,14,15,07,25.20
2007,08,14,15,08,25.30
2007,08,14,15,09,25.30
2007,08,14,15,10,25.20
2007,08,14,15,11,25.30
2007,08,14,15,12,25.30
2007,08,14,15,13,25.40
2007,08,14,15,14,25.30
2007,08,14,15,15,25.30
2007,08,14,15,16,25.20
2007,08,14,15,17,25.20
2007,08,14,15,18,25.10
2007,08,14,15,19,25.00
2007,08,14,15,20,24.90
2007,08,14,15,21,24.90
2007,08,14,15,22,24.80
2007,08,14,15,23,24.80
2007,08,14,15,24,24.80
2007,08,14,15,25,24.70
2007,08,14,15,26,24.60
2007,08,14,15,27,24.50
2007,08,14,15,28,24.50
2007,08,14,15,29,24.60
2007,08,14,15,30,24.60
2007,08,14,15,31,24.60
2007,08,14,15,32,24.70
2007,08,14,15,33,24.80
2007,08,14,15,34,24.80
2007,08,14,15,35,24.80
2007,08,14,15,36,24.80
2007,08,14,15,37,24.70
2007,08,14,15,38,24.70
2007,08,14,15,39,24.70
2007,08,14,15,40,24.70
2007,08,14,15,41,24.60
2007,08,14,15,42,24.60
2007,08,14,15,43,24.60
2007,08,14,15,44,24.70
2007,08,14,15,45,24.60
2007,08,14,15,46,24.60
2007,08,14,15,47,24.70
2007,08,14,15,48,24.70
2007,08,14,15,49,24.80
2007,08,14,15,50,24.80
2007,08,14,15,51,24.90
2007,08,14,15,52,24.90
2007,08,14,15,53,24.90
2007,08,14,15,54,24.90
2007,08,14,15,55,24.90
2007,08,14,15,56,24.90
2007,08,14,15,57,24.80
2007,08,14,15,58,24.70
2007,08,14,15,59,24.70
2007,08,14,16,00,24.60
2007,08,14,16,01,24.50
2007,08,14,16,02,24.50
2007,08,14,16,03,24.40
2007,08,14,16,04,24.40
2007,08,14,16,05,24.40
2007,08,14,16,06,24.40
2007,08,14,16,07,24.50
2007,08,14,16,08,24.50
2007,08,14,16,09,24.50
2007,08,14,16,10,24.60
2007,08,14,16,11,24.60
2007,08,14,16,12,24.70
2007,08,14,16,13,24.70
2007,08,14,16,14,24.70
2007,08,14,16,15,24.70
2007,08,14,16,16,24.70
2007,08,14,16,17,24.80
2007,08,14,16,18,24.80
2007,08,14,16,19,24.80
2007,08,14,16,20,24.90
2007,08,14,16,21,24.90
2007,08,14,16,22,24.90
2007,08,14,16,23,24.90
2007,08,14,16,24,24.90
2007,08,14,16,25,24.90
2007,08,14,16,26,25.00
2007,08,14,16,27,25.00
2007,08,14,16,28,25.00
2007,08,14,16,29,25.00
2007,08,14,16,30,25.00
2007,08,14,16,31,24.90
2007,08,14,16,32,25.00
2007,08,14,16,33,25.00
2007,08,14,16,34,25.10
2007,08,14,16,35,25.10
2007,08,14,16,36,25.20
2007,08,14,16,37,25.30
2007,08,14,16,38,25.30
2007,08,14,16,39,25.30
2007,08,14,16,40,25.40
2007,08,14,16,41,25.40
2007,08,14,16,42,25.40
2007,08,14,16,43,25.40
2007,08,14,16,44,25.30
2007,08,14,16,45,25.30
2007,08,14,16,46,25.30
2007,08,14,16,47,25.30
2007,08,14,16,48,25.30
2007,08,14,16,49,25.40
2007,08,14,16,50,25.40
2007,08,14,16,51,25.40
2007,08,14,16,52,25.40
2007,08,14,16,53,25.50
2007,08,14,16,54,25.50
2007,08,14,16,55,25.60
2007,08,14,16,56,25.70
2007,08,14,16,57,25.70
2007,08,14,16,58,25.70
2007,08,14,16,59,25.70
2007,08,14,17,00,25.70
2007,08,14,17,01,25.70
2007,08,14,17,02,25.70
2007,08,14,17,03,25.60
2007,08,14,17,04,25.60
2007,08,14,17,05,25.50
2007,08,14,17,06,25.50
2007,08,14,17,07,25.50
2007,08,14,17,08,25.50
2007,08,14,17,09,25.50
2007,08,14,17,10,25.40
2007,08,14,17,11,25.40
2007,08,14,17,12,25.40
2007,08,14,17,13,25.30
2007,08,14,17,14,25.30
2007,08,14,17,15,25.30
2007,08,14,17,16,25.30
2007,08,14,17,17,25.30
2007,08,14,17,18,25.30
2007,08,14,17,19,25.40
2007,08,14,17,20,25.40
2007,08,14,17,21,25.30
2007,08,14,17,22,25.30
2007,08,14,17,23,25.20
2007,08,14,17,24,25.10
2007,08,14,17,25,25.00